Skip Page Navigation
NASA JPL Caltech
NASA Logo - Jet Propulsion Laboratory + View the NASA Portal
+ Center for Near-Earth Object Studies
JPL Home Earth Solar System Stars & Galaxies Technology
JPL Solar System Dynamics
BODIES ORBITS EPHEMERIDES TOOLS PHYSICAL DATA DISCOVERY FAQ SITE MAP
IMPORTANT: The SSD Announcement email list is now available. Major changes are coming in the near future, including possible hostname and/or URL changes. To be notified of such changes, subscribe to this email list.

Please visit this page for more details.


JPL Small-Body Database Browser
Search: [ help ]  
146695 (2001 VG71)
Classification: Inner Main-belt Asteroid          SPK-ID: 2146695
Ephemeris | Orbit Diagram | Orbital Elements | Mission Design | Physical Parameters | Discovery Circumstances ]

[ show orbit diagram ]
Orbital Elements at Epoch 2458600.5 (2019-Apr-27.0) TDB
Reference: JPL 16 (heliocentric ecliptic J2000)
 Element Value Uncertainty (1-sigma)   Units 
e .07112190238047343 7.0644e-08  
a 1.925537451394585 6.2046e-09 au
q 1.788589564746553 1.3527e-07 au
i 18.00843329570355 6.2818e-06 deg
node 299.4879989746026 1.1352e-05 deg
peri 340.5151850684146 3.9428e-05 deg
M 358.7339299331134 3.95e-05 deg
tp 2458603.932271405396
(2019-Apr-30.43227141)
0.00010708 TDB
period 975.9473336110198
2.67
4.7172e-06
1.291e-08
d
yr
n .3688723639092231 1.7829e-09 deg/d
Q 2.062485338042616 6.6459e-09 au
  Orbit Determination Parameters
   # obs. used (total)      703  
   data-arc span      6605 days (18.08 yr)  
   first obs. used      2001-10-25  
   last obs. used      2019-11-25  
   planetary ephem.      DE431  
   SB-pert. ephem.      SB431-N16  
   condition code      0  
   norm. resid. RMS      .49847  
   source      ORB  
   producer      Otto Matic  
   solution date      2019-Dec-04 13:00:49  

Additional Information
 Earth MOID = .776248 au 
 Jupiter MOID = 3.11582 au 
 T_jup = 3.856 
[ show covariance matrix ]

Ephemeris | Orbit Diagram | Orbital Elements | Mission Design | Physical Parameters | Discovery Circumstances ]

Physical Parameter Table
Parameter Symbol Value Units Sigma Reference Notes
absolute magnitude H 15.8   n/a MPO432921  

146695 (2001 VG71)          Discovered 2001-Nov-11 by LINEAR at Socorro
Reference: 20070106/Numbers.arcLast Updated: 2007-01-09
Ephemeris | Orbit Diagram | Orbital Elements | Mission Design | Physical Parameters | Discovery Circumstances ]
ABOUT SSD CREDITS/AWARDS PRIVACY/COPYRIGHT GLOSSARY LINKS
FirstGov 2019-Dec-12 06:05 UT
(server date/time)  
NASA Home Page
Site Manager:   Ryan S. Park
Webmaster  Alan B. Chamberlin